カタログに戻る

THOR ABLESTAR DEB

運用中LEO
NORAD 145·DEBRIS·🇺🇸 United States

打ち上げ Jun 29, 1961 から Cape Canaveral Space Force Station

Loading…

次のパス (今後24時間)

TLE

最新Source: Space-Track

元期: Sep 9, 2026, 22:34 UTC

1   145U 61015AF  26252.94049551  .00000126  00000-0  12837-3 0  9990
2   145  66.9266 172.6045 0068328 236.6179 122.8357 14.03335296328606

AllMySatでTHOR ABLESTAR DEBをリアルタイム追跡

Download on the App Store